sat.trackr.live / text

‹ back to catalog

STARLINK-37485

NORAD 69376 · 2026-123Z

PAYLOAD ACTIVE UNKNOWN

§ Identity

Operator
Country
US
Launch date
2026-06-04
Launch site
AFETR
Launch vehicle
Mass (kg)
RCS (m²)

Purposes: comms

External: N2YO · Heavens-Above · Gunter

§ Orbital elements

Epoch: 2026-09-19T22:34:11.252064Z

Period
93.85 min
Inclination
53.1593°
Eccentricity
0.0000886
Mean motion
15.34397558 rev/d
Perigee alt
462.1 km
Apogee alt
463.3 km
Semi-major
6,840.8 km
B*
4.4390e-4
RAAN
144.3590°
Arg perigee
128.6525°
Mean anomaly
231.4557°
Rev number
1,678

§ Raw data

STARLINK-374851 69376U 26123Z   26262.94040801  .00014650  00000+0  44390-3 0  99972 69376  53.1593 144.3590 0000886 128.6525 231.4557 15.34397558 16785

JSON: /api/v1/satellites/69376 · /tle

For live sub-satellite position, see the globe view (requires WebGL).

§ Visibility from observer

Set your observer location to see the next 7 days of passes ≥ 10°. The values pass through the URL so the page stays shareable.

No JS? Fill the form by hand. The geolocation button needs JavaScript.